Time,TemperatureF,DewpointF,PressureIn,WindDirection,WindDirectionDegrees,WindSpeedMPH,WindSpeedGustMPH,Humidity,HourlyPrecipIn,Conditions,Clouds,dailyrainin,SoftwareType,DateUTC
2013-12-19 00:01:00,28.6,21.7,30.24,West,270,0.0,4.0,75,0.00,,,0.00,meteobridge,2013-12-19 05:01:00,
2013-12-19 00:02:00,28.6,21.7,30.24,West,270,0.0,4.0,75,0.00,,,0.00,meteobridge,2013-12-19 05:02:00,
2013-12-19 00:03:00,28.6,21.7,30.24,West,270,0.9,2.9,75,0.00,,,0.00,meteobridge,2013-12-19 05:03:00,
2013-12-19 00:05:00,28.6,21.7,30.24,West,270,0.9,2.9,75,0.00,,,0.00,meteobridge,2013-12-19 05:05:00,
2013-12-19 00:10:00,28.6,21.7,30.24,West,271,0.0,0.9,75,0.00,,,0.00,meteobridge,2013-12-19 05:10:00,
2013-12-19 00:15:00,28.6,21.7,30.24,West,261,0.0,2.9,75,0.00,,,0.00,meteobridge,2013-12-19 05:15:00,
2013-12-19 00:20:00,28.2,21.4,30.25,WNW,299,0.0,4.0,75,0.00,,,0.00,meteobridge,2013-12-19 05:20:00,
2013-12-19 00:25:00,28.0,21.2,30.25,WNW,299,0.0,2.0,75,0.00,,,0.00,meteobridge,2013-12-19 05:25:00,
2013-12-19 00:30:00,27.9,21.2,30.24,WNW,299,2.0,2.9,76,0.00,,,0.00,meteobridge,2013-12-19 05:30:00,
2013-12-19 00:35:00,27.9,21.2,30.24,NW,309,4.0,6.0,76,0.00,,,0.00,meteobridge,2013-12-19 05:35:00,
2013-12-19 00:40:00,28.0,21.7,30.24,NW,311,2.0,6.0,77,0.00,,,0.00,meteobridge,2013-12-19 05:40:00,
2013-12-19 00:45:00,28.0,21.4,30.25,West,266,2.0,4.0,76,0.00,,,0.00,meteobridge,2013-12-19 05:45:00,
2013-12-19 00:50:00,28.2,21.6,30.24,West,266,2.9,2.9,76,0.00,,,0.00,meteobridge,2013-12-19 05:50:00,
2013-12-19 00:55:00,28.2,21.6,30.24,West,266,0.9,2.9,76,0.00,,,0.00,meteobridge,2013-12-19 05:55:00,
2013-12-19 01:00:00,28.2,21.6,30.25,West,266,0.9,4.0,76,0.00,,,0.00,meteobridge,2013-12-19 06:00:00,
2013-12-19 01:05:00,28.2,21.6,30.24,WNW,286,0.9,4.0,76,0.00,,,0.00,meteobridge,2013-12-19 06:05:00,
2013-12-19 01:10:00,28.2,21.6,30.24,WNW,286,0.9,2.9,76,0.00,,,0.00,meteobridge,2013-12-19 06:10:00,
2013-12-19 01:15:00,28.2,21.6,30.23,WNW,286,2.9,2.9,76,0.00,,,0.00,meteobridge,2013-12-19 06:15:00,
2013-12-19 01:21:00,28.6,21.9,30.23,WNW,286,0.0,0.0,76,0.00,,,0.00,meteobridge,2013-12-19 06:21:00,
2013-12-19 01:26:00,28.4,21.7,30.24,WNW,286,0.0,2.0,76,0.00,,,0.00,meteobridge,2013-12-19 06:26:00,
2013-12-19 01:31:00,28.2,21.6,30.23,WNW,286,0.9,0.9,76,0.00,,,0.00,meteobridge,2013-12-19 06:31:00,
2013-12-19 01:37:00,28.0,21.7,30.24,WNW,286,0.0,0.0,77,0.00,,,0.00,meteobridge,2013-12-19 06:37:00,
2013-12-19 01:42:00,27.9,21.6,30.24,WNW,286,0.9,0.9,77,0.00,,,0.00,meteobridge,2013-12-19 06:42:00,
2013-12-19 01:47:00,27.5,21.6,30.24,WNW,286,0.0,2.0,78,0.00,,,0.00,meteobridge,2013-12-19 06:47:00,
2013-12-19 01:52:00,27.5,21.6,30.24,WNW,286,0.0,2.0,78,0.00,,,0.00,meteobridge,2013-12-19 06:52:00,
2013-12-19 01:57:00,27.3,21.4,30.24,WNW,286,0.0,0.0,78,0.00,,,0.00,meteobridge,2013-12-19 06:57:00,
2013-12-19 02:02:00,27.1,21.6,30.24,WNW,286,0.0,0.0,79,0.00,,,0.00,meteobridge,2013-12-19 07:02:00,
2013-12-19 02:07:00,27.1,21.7,30.24,WNW,286,0.0,0.0,80,0.00,,,0.00,meteobridge,2013-12-19 07:07:00,
2013-12-19 02:13:00,27.0,21.6,30.24,WNW,286,0.0,0.9,80,0.00,,,0.00,meteobridge,2013-12-19 07:13:00,
2013-12-19 02:18:00,26.8,21.4,30.24,WNW,286,0.0,2.0,80,0.00,,,0.00,meteobridge,2013-12-19 07:18:00,
2013-12-19 02:23:00,26.8,21.4,30.24,WNW,286,0.9,2.0,80,0.00,,,0.00,meteobridge,2013-12-19 07:23:00,
2013-12-19 02:28:00,26.8,21.4,30.24,WNW,286,0.9,0.9,80,0.00,,,0.00,meteobridge,2013-12-19 07:28:00,
2013-12-19 02:33:00,26.6,21.2,30.25,WNW,286,0.0,0.9,80,0.00,,,0.00,meteobridge,2013-12-19 07:33:00,
2013-12-19 02:38:00,26.4,21.0,30.25,WNW,286,0.0,2.0,80,0.00,,,0.00,meteobridge,2013-12-19 07:38:00,
2013-12-19 02:43:00,26.2,21.2,30.25,WNW,286,0.9,0.9,81,0.00,,,0.00,meteobridge,2013-12-19 07:43:00,
2013-12-19 02:49:00,26.2,21.2,30.26,WNW,286,0.0,0.9,81,0.00,,,0.00,meteobridge,2013-12-19 07:49:00,
2013-12-19 02:54:00,26.1,21.0,30.26,WNW,286,0.9,2.9,81,0.00,,,0.00,meteobridge,2013-12-19 07:54:00,
2013-12-19 02:59:00,26.2,21.2,30.26,WNW,286,2.0,2.9,81,0.00,,,0.00,meteobridge,2013-12-19 07:59:00,
2013-12-19 03:04:00,26.4,21.4,30.26,WNW,286,0.0,2.9,81,0.00,,,0.00,meteobridge,2013-12-19 08:04:00,
2013-12-19 03:09:00,26.4,21.4,30.26,WNW,286,0.9,2.9,81,0.00,,,0.00,meteobridge,2013-12-19 08:09:00,
2013-12-19 03:14:00,26.4,21.4,30.26,WNW,286,0.0,0.9,81,0.00,,,0.00,meteobridge,2013-12-19 08:14:00,
2013-12-19 03:19:00,26.4,21.4,30.26,WNW,286,0.9,2.9,81,0.00,,,0.00,meteobridge,2013-12-19 08:19:00,
2013-12-19 03:24:00,26.4,21.4,30.26,WNW,286,0.0,2.0,81,0.00,,,0.00,meteobridge,2013-12-19 08:24:00,
2013-12-19 03:30:00,26.2,21.2,30.25,WNW,286,0.0,0.0,81,0.00,,,0.00,meteobridge,2013-12-19 08:30:00,
2013-12-19 03:35:00,26.2,21.2,30.25,WNW,286,0.9,2.0,81,0.00,,,0.00,meteobridge,2013-12-19 08:35:00,
2013-12-19 03:40:00,26.2,21.2,30.25,WNW,286,0.0,2.9,81,0.00,,,0.00,meteobridge,2013-12-19 08:40:00,
2013-12-19 03:45:00,26.2,21.6,30.25,WNW,286,0.0,0.9,82,0.00,,,0.00,meteobridge,2013-12-19 08:45:00,
2013-12-19 03:51:00,26.1,21.4,30.25,WNW,286,0.0,0.0,82,0.00,,,0.00,meteobridge,2013-12-19 08:51:00,
2013-12-19 03:56:00,25.9,21.2,30.24,WNW,286,0.0,0.0,82,0.00,,,0.00,meteobridge,2013-12-19 08:56:00,
2013-12-19 04:01:00,25.7,21.0,30.24,WNW,286,0.0,0.9,82,0.00,,,0.00,meteobridge,2013-12-19 09:01:00,
2013-12-19 04:06:00,25.7,21.2,30.24,WNW,286,0.0,0.0,83,0.00,,,0.00,meteobridge,2013-12-19 09:06:00,
2013-12-19 04:11:00,25.7,21.6,30.24,WNW,286,0.0,0.0,84,0.00,,,0.00,meteobridge,2013-12-19 09:11:00,
2013-12-19 04:16:00,25.9,21.7,30.23,WNW,286,0.9,2.0,84,0.00,,,0.00,meteobridge,2013-12-19 09:16:00,
2013-12-19 04:22:00,25.9,21.7,30.23,WNW,286,0.9,2.9,84,0.00,,,0.00,meteobridge,2013-12-19 09:22:00,
2013-12-19 04:27:00,26.1,21.9,30.23,WNW,286,2.0,2.0,84,0.00,,,0.00,meteobridge,2013-12-19 09:27:00,
2013-12-19 04:32:00,26.1,21.9,30.24,WNW,286,0.0,0.9,84,0.00,,,0.00,meteobridge,2013-12-19 09:32:00,
2013-12-19 04:37:00,26.1,21.6,30.24,WNW,286,0.0,2.0,83,0.00,,,0.00,meteobridge,2013-12-19 09:37:00,
2013-12-19 04:42:00,26.1,21.6,30.24,WNW,286,0.0,2.9,83,0.00,,,0.00,meteobridge,2013-12-19 09:42:00,
2013-12-19 04:47:00,26.1,21.6,30.24,WNW,286,0.0,0.9,83,0.00,,,0.00,meteobridge,2013-12-19 09:47:00,
2013-12-19 04:52:00,26.1,21.9,30.24,WNW,286,0.9,2.0,84,0.00,,,0.00,meteobridge,2013-12-19 09:52:00,
2013-12-19 04:57:00,26.2,21.7,30.24,West,279,2.9,2.9,83,0.00,,,0.00,meteobridge,2013-12-19 09:57:00,
2013-12-19 05:03:00,26.2,21.7,30.24,SW,229,0.0,2.9,83,0.00,,,0.00,meteobridge,2013-12-19 10:03:00,
2013-12-19 05:08:00,26.2,21.7,30.24,SW,234,0.9,2.9,83,0.00,,,0.00,meteobridge,2013-12-19 10:08:00,
2013-12-19 05:13:00,26.4,21.9,30.24,SW,234,0.0,0.0,83,0.00,,,0.00,meteobridge,2013-12-19 10:13:00,
2013-12-19 05:18:00,26.4,21.9,30.24,SW,234,0.9,0.9,83,0.00,,,0.00,meteobridge,2013-12-19 10:18:00,
2013-12-19 05:23:00,26.4,21.9,30.24,SW,234,0.0,0.0,83,0.00,,,0.00,meteobridge,2013-12-19 10:23:00,
2013-12-19 05:28:00,26.4,21.9,30.24,SW,234,0.0,2.0,83,0.00,,,0.00,meteobridge,2013-12-19 10:28:00,
2013-12-19 05:34:00,26.2,21.7,30.23,SW,234,2.0,2.0,83,0.00,,,0.00,meteobridge,2013-12-19 10:34:00,
2013-12-19 05:39:00,26.2,21.7,30.23,SW,218,0.0,2.9,83,0.00,,,0.00,meteobridge,2013-12-19 10:39:00,
2013-12-19 05:44:00,26.2,22.1,30.23,SW,219,0.0,2.0,84,0.00,,,0.00,meteobridge,2013-12-19 10:44:00,
2013-12-19 05:50:00,26.2,22.1,30.22,SSW,211,0.0,2.9,84,0.00,,,0.00,meteobridge,2013-12-19 10:50:00,
2013-12-19 05:55:00,26.4,22.3,30.22,SSW,211,0.0,2.9,84,0.00,,,0.00,meteobridge,2013-12-19 10:55:00,
2013-12-19 06:00:00,26.6,22.1,30.22,SSW,211,0.0,2.9,83,0.00,,,0.00,meteobridge,2013-12-19 11:00:00,
2013-12-19 06:05:00,27.0,22.5,30.22,SSW,208,2.0,4.9,83,0.00,,,0.00,meteobridge,2013-12-19 11:05:00,
2013-12-19 06:10:00,27.3,22.8,30.22,South,175,2.0,4.0,83,0.00,,,0.00,meteobridge,2013-12-19 11:10:00,
2013-12-19 06:15:00,27.9,23.0,30.22,SSW,196,4.9,6.0,82,0.00,,,0.00,meteobridge,2013-12-19 11:15:00,
2013-12-19 06:20:00,28.0,23.0,30.22,SW,236,0.9,2.9,81,0.00,,,0.00,meteobridge,2013-12-19 11:20:00,
2013-12-19 06:25:00,28.2,23.2,30.22,SW,236,0.0,4.0,81,0.00,,,0.00,meteobridge,2013-12-19 11:25:00,
2013-12-19 06:30:00,28.2,22.8,30.23,SW,236,2.0,2.9,80,0.00,,,0.00,meteobridge,2013-12-19 11:30:00,
2013-12-19 06:35:00,28.2,22.8,30.22,SW,227,0.0,2.0,80,0.00,,,0.00,meteobridge,2013-12-19 11:35:00,
2013-12-19 06:40:00,28.2,22.8,30.23,SW,227,0.0,0.9,80,0.00,,,0.00,meteobridge,2013-12-19 11:40:00,
2013-12-19 06:45:00,28.0,23.0,30.23,SW,227,0.0,2.0,81,0.00,,,0.00,meteobridge,2013-12-19 11:45:00,
2013-12-19 06:50:00,28.0,23.0,30.22,SW,227,0.0,2.0,81,0.00,,,0.00,meteobridge,2013-12-19 11:50:00,
2013-12-19 06:55:00,27.9,22.8,30.22,SW,227,0.9,4.0,81,0.00,,,0.00,meteobridge,2013-12-19 11:55:00,
2013-12-19 07:01:00,27.9,23.0,30.22,SW,227,0.9,0.9,82,0.00,,,0.00,meteobridge,2013-12-19 12:01:00,
2013-12-19 07:06:00,27.9,23.0,30.22,SW,227,2.0,2.9,82,0.00,,,0.00,meteobridge,2013-12-19 12:06:00,
2013-12-19 07:11:00,27.9,23.0,30.22,SW,223,2.0,2.9,82,0.00,,,0.00,meteobridge,2013-12-19 12:11:00,
2013-12-19 07:16:00,27.9,23.0,30.21,SW,223,2.0,2.0,82,0.00,,,0.00,meteobridge,2013-12-19 12:16:00,
2013-12-19 07:21:00,27.9,23.0,30.21,SW,223,0.9,2.0,82,0.00,,,0.00,meteobridge,2013-12-19 12:21:00,
2013-12-19 07:26:00,27.9,23.0,30.21,SW,223,0.0,0.0,82,0.00,,,0.00,meteobridge,2013-12-19 12:26:00,
2013-12-19 07:31:00,27.9,23.0,30.21,SW,223,0.0,0.0,82,0.00,,,0.00,meteobridge,2013-12-19 12:31:00,
2013-12-19 07:36:00,27.9,23.0,30.21,SW,223,0.0,2.9,82,0.00,,,0.00,meteobridge,2013-12-19 12:36:00,
2013-12-19 07:41:00,27.9,23.0,30.21,SW,223,0.0,0.9,82,0.00,,,0.00,meteobridge,2013-12-19 12:41:00,
2013-12-19 07:46:00,28.0,23.5,30.20,SW,225,2.0,2.0,83,0.00,,,0.00,meteobridge,2013-12-19 12:46:00,
2013-12-19 07:52:00,28.2,23.4,30.19,SW,225,0.9,0.9,82,0.00,,,0.00,meteobridge,2013-12-19 12:52:00,
2013-12-19 07:57:00,28.6,23.7,30.19,SW,225,2.9,2.9,82,0.00,,,0.00,meteobridge,2013-12-19 12:57:00,
2013-12-19 08:02:00,28.9,24.1,30.19,SW,217,0.0,2.9,82,0.00,,,0.00,meteobridge,2013-12-19 13:02:00,
2013-12-19 08:07:00,29.5,24.4,30.19,SSW,210,0.9,2.9,81,0.00,,,0.00,meteobridge,2013-12-19 13:07:00,
2013-12-19 08:12:00,30.2,25.2,30.19,SW,219,2.0,4.9,81,0.00,,,0.00,meteobridge,2013-12-19 13:12:00,
2013-12-19 08:17:00,30.9,25.7,30.19,SW,219,0.0,2.0,81,0.00,,,0.00,meteobridge,2013-12-19 13:17:00,
2013-12-19 08:23:00,31.6,26.2,30.19,SSW,213,0.9,2.0,80,0.00,,,0.00,meteobridge,2013-12-19 13:23:00,
2013-12-19 08:28:00,32.2,27.0,30.19,WSW,244,2.0,4.0,81,0.00,,,0.00,meteobridge,2013-12-19 13:28:00,
2013-12-19 08:33:00,32.9,27.7,30.19,SW,236,2.9,4.9,81,0.00,,,0.00,meteobridge,2013-12-19 13:33:00,
2013-12-19 08:38:00,33.6,28.0,30.19,SSW,197,4.9,8.1,80,0.00,,,0.00,meteobridge,2013-12-19 13:38:00,
2013-12-19 08:43:00,34.2,28.6,30.19,WSW,245,2.9,6.9,80,0.00,,,0.00,meteobridge,2013-12-19 13:43:00,
2013-12-19 08:48:00,34.9,28.8,30.19,WSW,242,4.0,4.9,78,0.00,,,0.00,meteobridge,2013-12-19 13:48:00,
2013-12-19 08:53:00,35.4,28.9,30.19,South,171,4.9,4.9,77,0.00,,,0.00,meteobridge,2013-12-19 13:53:00,
2013-12-19 08:58:00,36.0,28.4,30.19,SSW,213,4.9,14.1,74,0.00,,,0.00,meteobridge,2013-12-19 13:58:00,
2013-12-19 09:03:00,36.3,28.6,30.19,West,263,4.9,8.1,73,0.00,,,0.00,meteobridge,2013-12-19 14:03:00,
2013-12-19 09:08:00,36.9,28.4,30.19,WSW,238,2.9,6.0,71,0.00,,,0.00,meteobridge,2013-12-19 14:08:00,
2013-12-19 09:13:00,37.0,28.2,30.19,SSW,205,2.0,6.0,70,0.00,,,0.00,meteobridge,2013-12-19 14:13:00,
2013-12-19 09:18:00,37.4,28.2,30.19,WSW,242,2.0,10.1,69,0.00,,,0.00,meteobridge,2013-12-19 14:18:00,
2013-12-19 09:23:00,37.6,28.0,30.19,WSW,256,4.0,8.9,68,0.00,,,0.00,meteobridge,2013-12-19 14:23:00,
2013-12-19 09:28:00,38.1,28.6,30.19,WNW,288,2.9,6.0,68,0.00,,,0.00,meteobridge,2013-12-19 14:28:00,
2013-12-19 09:33:00,37.9,27.7,30.19,West,270,4.0,8.1,66,0.00,,,0.00,meteobridge,2013-12-19 14:33:00,
2013-12-19 09:38:00,37.8,27.5,30.19,West,275,2.0,6.0,66,0.00,,,0.00,meteobridge,2013-12-19 14:38:00,
2013-12-19 09:43:00,37.8,27.5,30.19,South,181,0.9,6.0,66,0.00,,,0.00,meteobridge,2013-12-19 14:43:00,
2013-12-19 09:48:00,37.8,27.9,30.19,West,274,4.0,4.0,67,0.00,,,0.00,meteobridge,2013-12-19 14:48:00,
2013-12-19 09:53:00,37.9,27.7,30.19,WSW,243,0.0,6.0,66,0.00,,,0.00,meteobridge,2013-12-19 14:53:00,
2013-12-19 09:58:00,37.9,27.7,30.19,WSW,253,4.9,8.1,66,0.00,,,0.00,meteobridge,2013-12-19 14:58:00,
2013-12-19 10:03:00,38.1,27.9,30.18,WSW,246,2.0,6.0,66,0.00,,,0.00,meteobridge,2013-12-19 15:03:00,
2013-12-19 10:08:00,38.5,27.7,30.18,SW,219,4.0,6.0,65,0.00,,,0.00,meteobridge,2013-12-19 15:08:00,
2013-12-19 10:13:00,38.7,27.9,30.19,SW,216,2.9,6.0,65,0.00,,,0.00,meteobridge,2013-12-19 15:13:00,
2013-12-19 10:18:00,38.8,28.0,30.18,WSW,238,2.0,6.9,65,0.00,,,0.00,meteobridge,2013-12-19 15:18:00,
2013-12-19 10:24:00,38.7,27.5,30.18,WSW,250,2.0,4.9,64,0.00,,,0.00,meteobridge,2013-12-19 15:24:00,
2013-12-19 10:29:00,38.8,28.0,30.18,West,273,0.9,2.9,65,0.00,,,0.00,meteobridge,2013-12-19 15:29:00,
2013-12-19 10:34:00,38.8,28.0,30.18,West,273,2.9,4.9,65,0.00,,,0.00,meteobridge,2013-12-19 15:34:00,
2013-12-19 10:39:00,38.8,27.7,30.18,West,275,2.0,4.0,64,0.00,,,0.00,meteobridge,2013-12-19 15:39:00,
2013-12-19 10:44:00,39.6,28.8,30.17,WSW,257,2.9,6.0,65,0.00,,,0.00,meteobridge,2013-12-19 15:44:00,
2013-12-19 10:49:00,40.5,28.9,30.16,SW,234,2.9,2.9,63,0.00,,,0.00,meteobridge,2013-12-19 15:49:00,
2013-12-19 10:54:00,41.2,29.5,30.16,WSW,253,2.9,6.9,63,0.00,,,0.00,meteobridge,2013-12-19 15:54:00,
2013-12-19 11:00:00,41.7,28.9,30.16,WSW,242,2.9,4.9,60,0.00,,,0.00,meteobridge,2013-12-19 16:00:00,
2013-12-19 11:05:00,42.1,29.1,30.16,NW,321,0.0,4.0,60,0.00,,,0.00,meteobridge,2013-12-19 16:05:00,
2013-12-19 11:10:00,42.6,29.3,30.16,WSW,247,0.9,6.9,59,0.00,,,0.00,meteobridge,2013-12-19 16:10:00,
2013-12-19 11:15:00,43.5,29.7,30.15,WSW,255,4.0,6.9,58,0.00,,,0.00,meteobridge,2013-12-19 16:15:00,
2013-12-19 11:20:00,43.7,29.1,30.15,SW,227,2.9,6.0,56,0.00,,,0.00,meteobridge,2013-12-19 16:20:00,
2013-12-19 11:25:00,43.9,29.1,30.15,WSW,248,2.9,4.9,56,0.00,,,0.00,meteobridge,2013-12-19 16:25:00,
2013-12-19 11:30:00,44.2,29.1,30.15,SW,229,0.9,6.0,55,0.00,,,0.00,meteobridge,2013-12-19 16:30:00,
2013-12-19 11:35:00,44.4,28.8,30.15,SW,232,6.0,10.1,54,0.00,,,0.00,meteobridge,2013-12-19 16:35:00,
2013-12-19 11:40:00,44.8,29.1,30.14,WNW,286,4.0,8.9,54,0.00,,,0.00,meteobridge,2013-12-19 16:40:00,
2013-12-19 11:45:00,45.1,28.9,30.14,WSW,246,4.9,10.1,53,0.00,,,0.00,meteobridge,2013-12-19 16:45:00,
2013-12-19 11:50:00,45.3,29.7,30.14,WNW,295,2.9,12.1,54,0.00,,,0.00,meteobridge,2013-12-19 16:50:00,
2013-12-19 11:55:00,45.7,29.5,30.14,West,275,6.0,6.9,53,0.00,,,0.00,meteobridge,2013-12-19 16:55:00,
2013-12-19 12:00:00,46.4,30.7,30.13,SSW,206,2.0,4.0,54,0.00,,,0.00,meteobridge,2013-12-19 17:00:00,
2013-12-19 12:05:00,47.1,29.8,30.13,WNW,285,2.0,6.0,51,0.00,,,0.00,meteobridge,2013-12-19 17:05:00,
2013-12-19 12:10:00,47.8,30.6,30.13,WNW,285,2.0,2.9,51,0.00,,,0.00,meteobridge,2013-12-19 17:10:00,
2013-12-19 12:15:00,48.0,29.8,30.13,WSW,237,6.0,8.9,49,0.00,,,0.00,meteobridge,2013-12-19 17:15:00,
2013-12-19 12:20:00,48.4,30.0,30.12,SW,223,2.9,6.9,49,0.00,,,0.00,meteobridge,2013-12-19 17:20:00,
2013-12-19 12:25:00,48.6,30.2,30.12,West,261,2.9,8.1,49,0.00,,,0.00,meteobridge,2013-12-19 17:25:00,
2013-12-19 12:30:00,49.3,30.4,30.11,SW,225,6.9,6.9,48,0.00,,,0.00,meteobridge,2013-12-19 17:30:00,
2013-12-19 12:35:00,49.3,29.3,30.11,SW,231,4.0,11.0,46,0.00,,,0.00,meteobridge,2013-12-19 17:35:00,
2013-12-19 12:40:00,49.6,29.7,30.11,SW,222,4.0,10.1,46,0.00,,,0.00,meteobridge,2013-12-19 17:40:00,
2013-12-19 12:45:00,49.8,30.4,30.11,West,265,4.9,6.0,47,0.00,,,0.00,meteobridge,2013-12-19 17:45:00,
2013-12-19 12:51:00,49.8,29.8,30.11,West,260,0.9,8.1,46,0.00,,,0.00,meteobridge,2013-12-19 17:51:00,
2013-12-19 12:56:00,49.8,29.8,30.11,SW,225,4.9,11.0,46,0.00,,,0.00,meteobridge,2013-12-19 17:56:00,
2013-12-19 13:01:00,49.8,29.8,30.11,SW,236,8.9,12.1,46,0.00,,,0.00,meteobridge,2013-12-19 18:01:00,
2013-12-19 13:05:00,50.0,30.6,30.11,WSW,258,2.9,8.9,47,0.00,,,0.00,meteobridge,2013-12-19 18:05:00,
2013-12-19 13:10:00,50.2,30.7,30.10,NW,312,2.9,8.1,47,0.00,,,0.00,meteobridge,2013-12-19 18:10:00,
2013-12-19 13:15:00,50.9,31.5,30.10,NW,304,2.0,2.9,47,0.00,,,0.00,meteobridge,2013-12-19 18:15:00,
2013-12-19 13:20:00,51.1,30.6,30.10,WSW,251,13.0,13.0,45,0.00,,,0.00,meteobridge,2013-12-19 18:20:00,
2013-12-19 13:25:00,51.1,30.6,30.10,West,281,6.0,12.1,45,0.00,,,0.00,meteobridge,2013-12-19 18:25:00,
2013-12-19 13:30:00,51.1,30.6,30.10,WNW,302,4.9,6.0,45,0.00,,,0.00,meteobridge,2013-12-19 18:30:00,
2013-12-19 13:35:00,51.3,30.6,30.10,West,261,4.0,8.9,45,0.00,,,0.00,meteobridge,2013-12-19 18:35:00,
2013-12-19 13:40:00,51.1,30.6,30.10,West,273,4.0,6.9,45,0.00,,,0.00,meteobridge,2013-12-19 18:40:00,
2013-12-19 13:46:00,50.7,30.7,30.10,WSW,241,4.9,6.0,46,0.00,,,0.00,meteobridge,2013-12-19 18:46:00,
2013-12-19 13:51:00,50.7,30.7,30.10,WSW,252,4.0,6.0,46,0.00,,,0.00,meteobridge,2013-12-19 18:51:00,
2013-12-19 13:56:00,51.1,31.1,30.09,WSW,248,4.0,8.1,46,0.00,,,0.00,meteobridge,2013-12-19 18:56:00,
2013-12-19 14:01:00,51.1,31.1,30.09,WNW,282,0.9,4.0,46,0.00,,,0.00,meteobridge,2013-12-19 19:01:00,
2013-12-19 14:06:00,51.1,31.1,30.09,WSW,244,2.9,4.9,46,0.00,,,0.00,meteobridge,2013-12-19 19:06:00,
2013-12-19 14:11:00,50.7,30.7,30.09,WNW,292,2.9,8.1,46,0.00,,,0.00,meteobridge,2013-12-19 19:11:00,
2013-12-19 14:16:00,50.4,30.4,30.09,SW,222,6.0,8.1,46,0.00,,,0.00,meteobridge,2013-12-19 19:16:00,
2013-12-19 14:21:00,50.2,30.7,30.09,West,273,2.9,4.9,47,0.00,,,0.00,meteobridge,2013-12-19 19:21:00,
2013-12-19 14:26:00,50.2,30.7,30.09,WSW,252,4.0,4.9,47,0.00,,,0.00,meteobridge,2013-12-19 19:26:00,
2013-12-19 14:31:00,50.0,30.6,30.09,West,260,2.9,4.9,47,0.00,,,0.00,meteobridge,2013-12-19 19:31:00,
2013-12-19 14:36:00,50.2,30.7,30.09,WSW,251,4.0,6.9,47,0.00,,,0.00,meteobridge,2013-12-19 19:36:00,
2013-12-19 14:41:00,49.8,30.9,30.09,WNW,295,0.9,4.0,48,0.00,,,0.00,meteobridge,2013-12-19 19:41:00,
2013-12-19 14:46:00,49.6,30.7,30.09,West,281,4.0,6.0,48,0.00,,,0.00,meteobridge,2013-12-19 19:46:00,
2013-12-19 14:51:00,49.6,31.3,30.09,NW,308,2.0,4.0,49,0.00,,,0.00,meteobridge,2013-12-19 19:51:00,
2013-12-19 14:56:00,49.6,31.3,30.09,WSW,255,0.0,4.0,49,0.00,,,0.00,meteobridge,2013-12-19 19:56:00,
2013-12-19 15:01:00,49.6,31.3,30.10,West,273,0.9,4.0,49,0.00,,,0.00,meteobridge,2013-12-19 20:01:00,
2013-12-19 15:06:00,49.5,31.6,30.10,WSW,238,8.1,8.9,50,0.00,,,0.00,meteobridge,2013-12-19 20:06:00,
2013-12-19 15:11:00,49.3,31.5,30.10,WSW,240,6.0,6.9,50,0.00,,,0.00,meteobridge,2013-12-19 20:11:00,
2013-12-19 15:16:00,48.9,31.1,30.10,West,271,2.0,4.0,50,0.00,,,0.00,meteobridge,2013-12-19 20:16:00,
2013-12-19 15:21:00,48.7,30.9,30.10,West,259,0.9,2.0,50,0.00,,,0.00,meteobridge,2013-12-19 20:21:00,
2013-12-19 15:26:00,48.6,31.8,30.11,WSW,253,2.0,2.9,52,0.00,,,0.00,meteobridge,2013-12-19 20:26:00,
2013-12-19 15:32:00,48.4,31.1,30.11,WSW,250,2.9,4.9,51,0.00,,,0.00,meteobridge,2013-12-19 20:32:00,
2013-12-19 15:37:00,48.0,31.3,30.11,SSW,194,2.9,4.0,52,0.00,,,0.00,meteobridge,2013-12-19 20:37:00,
2013-12-19 15:42:00,47.7,30.9,30.11,SSW,196,0.0,2.9,52,0.00,,,0.00,meteobridge,2013-12-19 20:42:00,
2013-12-19 15:47:00,47.5,30.7,30.11,SW,227,0.0,4.9,52,0.00,,,0.00,meteobridge,2013-12-19 20:47:00,
2013-12-19 15:52:00,47.5,31.3,30.11,SW,228,0.9,2.9,53,0.00,,,0.00,meteobridge,2013-12-19 20:52:00,
2013-12-19 15:57:00,47.1,30.9,30.11,SW,219,0.0,2.9,53,0.00,,,0.00,meteobridge,2013-12-19 20:57:00,
2013-12-19 16:02:00,47.1,31.3,30.11,SW,219,0.9,0.9,54,0.00,,,0.00,meteobridge,2013-12-19 21:02:00,
2013-12-19 16:07:00,46.9,30.7,30.11,South,175,2.0,6.0,53,0.00,,,0.00,meteobridge,2013-12-19 21:07:00,
2013-12-19 16:12:00,46.8,31.5,30.11,WSW,240,0.9,2.9,55,0.00,,,0.00,meteobridge,2013-12-19 21:12:00,
2013-12-19 16:17:00,46.6,31.3,30.11,WSW,240,0.0,0.9,55,0.00,,,0.00,meteobridge,2013-12-19 21:17:00,
2013-12-19 16:22:00,46.2,31.5,30.12,WSW,240,0.0,0.9,56,0.00,,,0.00,meteobridge,2013-12-19 21:22:00,
2013-12-19 16:27:00,46.0,31.3,30.12,WSW,240,0.0,0.9,56,0.00,,,0.00,meteobridge,2013-12-19 21:27:00,
2013-12-19 16:33:00,45.7,31.3,30.12,WSW,240,0.0,0.0,57,0.00,,,0.00,meteobridge,2013-12-19 21:33:00,
2013-12-19 16:38:00,45.1,31.3,30.12,WSW,240,0.0,0.0,58,0.00,,,0.00,meteobridge,2013-12-19 21:38:00,
2013-12-19 16:43:00,45.0,31.5,30.12,WSW,240,0.0,0.0,59,0.00,,,0.00,meteobridge,2013-12-19 21:43:00,
2013-12-19 16:48:00,44.4,30.9,30.13,WSW,240,0.0,0.9,59,0.00,,,0.00,meteobridge,2013-12-19 21:48:00,
2013-12-19 16:53:00,44.2,31.3,30.13,WSW,240,0.9,0.9,60,0.00,,,0.00,meteobridge,2013-12-19 21:53:00,
2013-12-19 16:58:00,44.1,31.5,30.13,WSW,240,0.9,0.9,61,0.00,,,0.00,meteobridge,2013-12-19 21:58:00,
2013-12-19 17:03:00,43.9,30.9,30.12,WSW,240,0.9,2.0,60,0.00,,,0.00,meteobridge,2013-12-19 22:03:00,
2013-12-19 17:08:00,43.9,30.9,30.13,WSW,242,0.0,2.9,60,0.00,,,0.00,meteobridge,2013-12-19 22:08:00,
2013-12-19 17:13:00,43.9,30.9,30.13,WSW,242,0.0,0.0,60,0.00,,,0.00,meteobridge,2013-12-19 22:13:00,
2013-12-19 17:18:00,43.5,30.6,30.13,WSW,242,0.0,2.0,60,0.00,,,0.00,meteobridge,2013-12-19 22:18:00,
2013-12-19 17:23:00,43.3,30.7,30.14,WSW,242,0.9,0.9,61,0.00,,,0.00,meteobridge,2013-12-19 22:23:00,
2013-12-19 17:29:00,43.2,30.6,30.14,WSW,242,0.0,0.9,61,0.00,,,0.00,meteobridge,2013-12-19 22:29:00,
2013-12-19 17:34:00,43.0,30.9,30.14,WSW,242,0.0,0.0,62,0.00,,,0.00,meteobridge,2013-12-19 22:34:00,
2013-12-19 17:39:00,42.6,30.9,30.14,WSW,242,0.0,0.0,63,0.00,,,0.00,meteobridge,2013-12-19 22:39:00,
2013-12-19 17:44:00,42.4,30.7,30.14,WSW,242,0.0,0.0,63,0.00,,,0.00,meteobridge,2013-12-19 22:44:00,
2013-12-19 17:50:00,42.1,30.7,30.14,WSW,242,0.0,0.0,64,0.00,,,0.00,meteobridge,2013-12-19 22:50:00,
2013-12-19 17:55:00,41.5,30.2,30.14,WSW,242,0.0,0.0,64,0.00,,,0.00,meteobridge,2013-12-19 22:55:00,
2013-12-19 18:00:00,41.4,30.6,30.14,WSW,242,0.0,0.0,65,0.00,,,0.00,meteobridge,2013-12-19 23:00:00,
2013-12-19 18:05:00,41.2,30.7,30.14,WSW,242,0.0,0.0,66,0.00,,,0.00,meteobridge,2013-12-19 23:05:00,
2013-12-19 18:10:00,40.8,30.7,30.15,WSW,242,0.0,0.0,67,0.00,,,0.00,meteobridge,2013-12-19 23:10:00,
2013-12-19 18:15:00,40.6,30.6,30.15,WSW,242,0.0,0.0,67,0.00,,,0.00,meteobridge,2013-12-19 23:15:00,
2013-12-19 18:20:00,40.6,30.6,30.15,WSW,242,0.0,0.0,67,0.00,,,0.00,meteobridge,2013-12-19 23:20:00,
2013-12-19 18:26:00,40.5,30.4,30.16,WSW,242,0.0,0.0,67,0.00,,,0.00,meteobridge,2013-12-19 23:26:00,
2013-12-19 18:31:00,40.5,30.7,30.16,WSW,242,0.0,0.0,68,0.00,,,0.00,meteobridge,2013-12-19 23:31:00,
2013-12-19 18:36:00,40.5,30.7,30.16,WSW,242,0.0,0.0,68,0.00,,,0.00,meteobridge,2013-12-19 23:36:00,
2013-12-19 18:41:00,40.3,30.9,30.16,WSW,242,0.0,0.0,69,0.00,,,0.00,meteobridge,2013-12-19 23:41:00,
2013-12-19 18:46:00,40.1,31.1,30.16,WSW,242,0.0,0.0,70,0.00,,,0.00,meteobridge,2013-12-19 23:46:00,
2013-12-19 18:52:00,39.9,30.6,30.16,WSW,242,0.0,0.0,69,0.00,,,0.00,meteobridge,2013-12-19 23:52:00,
2013-12-19 18:57:00,39.7,30.7,30.16,WSW,242,0.0,0.0,70,0.00,,,0.00,meteobridge,2013-12-19 23:57:00,
2013-12-19 19:02:00,39.6,30.6,30.16,WSW,242,0.0,0.0,70,0.00,,,0.00,meteobridge,2013-12-20 00:02:00,
2013-12-19 19:07:00,39.4,30.4,30.16,WSW,242,0.0,0.0,70,0.00,,,0.00,meteobridge,2013-12-20 00:07:00,
2013-12-19 19:12:00,39.4,30.7,30.16,WSW,242,0.0,0.0,71,0.00,,,0.00,meteobridge,2013-12-20 00:12:00,
2013-12-19 19:18:00,39.0,30.7,30.16,WSW,242,0.0,0.0,72,0.00,,,0.00,meteobridge,2013-12-20 00:18:00,
2013-12-19 19:23:00,39.0,30.7,30.16,WSW,242,0.0,0.0,72,0.00,,,0.00,meteobridge,2013-12-20 00:23:00,
2013-12-19 19:28:00,38.8,30.6,30.16,WSW,242,0.0,0.0,72,0.00,,,0.00,meteobridge,2013-12-20 00:28:00,
2013-12-19 19:33:00,38.8,30.9,30.16,WSW,242,0.0,0.0,73,0.00,,,0.00,meteobridge,2013-12-20 00:33:00,
2013-12-19 19:38:00,38.8,30.9,30.16,WSW,242,0.0,0.0,73,0.00,,,0.00,meteobridge,2013-12-20 00:38:00,
2013-12-19 19:43:00,38.7,30.7,30.16,WSW,242,0.0,0.0,73,0.00,,,0.00,meteobridge,2013-12-20 00:43:00,
2013-12-19 19:48:00,38.5,30.9,30.17,WSW,242,0.0,0.0,74,0.00,,,0.00,meteobridge,2013-12-20 00:48:00,
2013-12-19 19:53:00,38.5,30.9,30.17,WSW,242,0.0,0.0,74,0.00,,,0.00,meteobridge,2013-12-20 00:53:00,
2013-12-19 19:59:00,38.3,31.1,30.16,WSW,242,0.0,0.0,75,0.00,,,0.00,meteobridge,2013-12-20 00:59:00,
2013-12-19 20:04:00,38.3,31.1,30.16,WSW,242,0.0,0.0,75,0.00,,,0.00,meteobridge,2013-12-20 01:04:00,
2013-12-19 20:09:00,38.1,31.3,30.17,WSW,242,0.0,0.0,76,0.00,,,0.00,meteobridge,2013-12-20 01:09:00,
2013-12-19 20:14:00,38.1,31.3,30.17,WSW,242,0.0,0.0,76,0.00,,,0.00,meteobridge,2013-12-20 01:14:00,
2013-12-19 20:19:00,37.9,31.1,30.17,WSW,242,0.0,0.0,76,0.00,,,0.00,meteobridge,2013-12-20 01:19:00,
2013-12-19 20:25:00,37.8,31.3,30.17,WSW,242,0.0,0.0,77,0.00,,,0.00,meteobridge,2013-12-20 01:25:00,
2013-12-19 20:30:00,37.8,31.3,30.17,WSW,242,0.0,0.0,77,0.00,,,0.00,meteobridge,2013-12-20 01:30:00,
2013-12-19 20:35:00,37.6,31.1,30.17,WSW,242,0.0,0.0,77,0.00,,,0.00,meteobridge,2013-12-20 01:35:00,
2013-12-19 20:40:00,37.6,31.3,30.17,WSW,242,0.0,0.0,78,0.00,,,0.00,meteobridge,2013-12-20 01:40:00,
2013-12-19 20:45:00,37.6,31.3,30.17,WSW,242,0.0,0.0,78,0.00,,,0.00,meteobridge,2013-12-20 01:45:00,
2013-12-19 20:50:00,37.4,31.1,30.17,WSW,242,0.0,0.0,78,0.00,,,0.00,meteobridge,2013-12-20 01:50:00,
2013-12-19 20:55:00,37.2,30.9,30.17,WSW,242,0.0,0.0,78,0.00,,,0.00,meteobridge,2013-12-20 01:55:00,
2013-12-19 21:01:00,37.2,30.9,30.17,WSW,242,0.0,0.0,78,0.00,,,0.00,meteobridge,2013-12-20 02:01:00,
2013-12-19 21:06:00,37.2,30.9,30.17,WSW,242,0.0,0.0,78,0.00,,,0.00,meteobridge,2013-12-20 02:06:00,
2013-12-19 21:11:00,37.2,31.3,30.17,WSW,242,0.0,0.0,79,0.00,,,0.00,meteobridge,2013-12-20 02:11:00,
2013-12-19 21:16:00,37.2,31.3,30.17,WSW,242,0.0,0.0,79,0.00,,,0.00,meteobridge,2013-12-20 02:16:00,
2013-12-19 21:21:00,37.0,31.1,30.17,WSW,242,0.0,0.0,79,0.00,,,0.00,meteobridge,2013-12-20 02:21:00,
2013-12-19 21:26:00,37.0,31.1,30.17,WSW,242,0.0,0.0,79,0.00,,,0.00,meteobridge,2013-12-20 02:26:00,
2013-12-19 21:31:00,37.0,31.1,30.17,WSW,242,0.0,0.0,79,0.00,,,0.00,meteobridge,2013-12-20 02:31:00,
2013-12-19 21:37:00,36.9,30.9,30.17,WSW,242,0.0,0.0,79,0.00,,,0.00,meteobridge,2013-12-20 02:37:00,
2013-12-19 21:42:00,36.9,30.9,30.17,WSW,242,0.0,0.0,79,0.00,,,0.00,meteobridge,2013-12-20 02:42:00,
2013-12-19 21:47:00,36.7,30.7,30.16,WSW,242,0.0,0.0,79,0.00,,,0.00,meteobridge,2013-12-20 02:47:00,
2013-12-19 21:52:00,36.7,31.1,30.17,WSW,242,0.0,0.0,80,0.00,,,0.00,meteobridge,2013-12-20 02:52:00,
2013-12-19 21:57:00,36.5,30.9,30.17,WSW,242,0.0,0.0,80,0.00,,,0.00,meteobridge,2013-12-20 02:57:00,
2013-12-19 22:03:00,36.5,30.9,30.17,WSW,242,0.0,0.0,80,0.00,,,0.00,meteobridge,2013-12-20 03:03:00,
2013-12-19 22:08:00,36.5,30.9,30.17,WSW,242,0.0,0.0,80,0.00,,,0.00,meteobridge,2013-12-20 03:08:00,
2013-12-19 22:13:00,36.3,31.1,30.17,WSW,242,0.0,0.0,81,0.00,,,0.00,meteobridge,2013-12-20 03:13:00,
2013-12-19 22:18:00,36.3,31.1,30.16,WSW,242,0.0,0.0,81,0.00,,,0.00,meteobridge,2013-12-20 03:18:00,
2013-12-19 22:23:00,36.3,31.1,30.17,WSW,242,0.0,0.0,81,0.00,,,0.00,meteobridge,2013-12-20 03:23:00,
2013-12-19 22:28:00,36.1,30.9,30.16,WSW,242,0.0,0.0,81,0.00,,,0.00,meteobridge,2013-12-20 03:28:00,
2013-12-19 22:33:00,36.1,30.9,30.16,WSW,242,0.0,0.0,81,0.00,,,0.00,meteobridge,2013-12-20 03:33:00,
2013-12-19 22:38:00,36.1,30.9,30.16,WSW,242,0.0,0.0,81,0.00,,,0.00,meteobridge,2013-12-20 03:38:00,
2013-12-19 22:43:00,36.0,30.7,30.16,WSW,242,0.0,0.0,81,0.00,,,0.00,meteobridge,2013-12-20 03:43:00,
2013-12-19 22:49:00,36.0,30.7,30.16,WSW,242,0.0,0.0,81,0.00,,,0.00,meteobridge,2013-12-20 03:49:00,
2013-12-19 22:54:00,36.0,30.7,30.16,WSW,242,0.0,0.0,81,0.00,,,0.00,meteobridge,2013-12-20 03:54:00,
2013-12-19 22:59:00,35.8,30.6,30.16,WSW,242,0.0,0.0,81,0.00,,,0.00,meteobridge,2013-12-20 03:59:00,
2013-12-19 23:04:00,35.8,30.7,30.16,WSW,242,0.0,0.0,82,0.00,,,0.00,meteobridge,2013-12-20 04:04:00,
2013-12-19 23:09:00,35.8,30.7,30.16,WSW,242,0.0,0.0,82,0.00,,,0.00,meteobridge,2013-12-20 04:09:00,
2013-12-19 23:14:00,35.6,30.7,30.16,WSW,242,0.0,0.0,82,0.00,,,0.00,meteobridge,2013-12-20 04:14:00,
2013-12-19 23:20:00,35.6,30.9,30.16,WSW,242,0.0,0.0,83,0.00,,,0.00,meteobridge,2013-12-20 04:20:00,
2013-12-19 23:25:00,35.4,30.7,30.16,WSW,242,0.0,0.0,83,0.00,,,0.00,meteobridge,2013-12-20 04:25:00,
2013-12-19 23:30:00,35.4,30.7,30.16,WSW,242,0.0,0.0,83,0.00,,,0.00,meteobridge,2013-12-20 04:30:00,
2013-12-19 23:35:00,35.4,30.7,30.17,WSW,242,0.0,0.0,83,0.00,,,0.00,meteobridge,2013-12-20 04:35:00,
2013-12-19 23:41:00,35.4,30.7,30.17,WSW,242,0.0,0.0,83,0.00,,,0.00,meteobridge,2013-12-20 04:41:00,
2013-12-19 23:46:00,35.4,30.7,30.17,WSW,242,0.0,0.0,83,0.00,,,0.00,meteobridge,2013-12-20 04:46:00,
2013-12-19 23:51:00,35.2,30.6,30.16,WSW,242,0.0,0.0,83,0.00,,,0.00,meteobridge,2013-12-20 04:51:00,
2013-12-19 23:56:00,35.2,30.6,30.16,WSW,242,0.0,0.0,83,0.00,,,0.00,meteobridge,2013-12-20 04:56:00,